Theta_e
308 308 308 307 309 310 311 312 313 313 313 313 312 313 314 315 315 317 319 320 320 320 319 319 319 321 323 319 321 320 316 316 325 325 328 325 327 327 332 333 339 337 333 333 346
308 307 307 309 310 311 312 313 313 313 313 313 312 313 314 316 316 318 322 319 319 319 319 320 319 321 318 320 319 319 317 320 324 322 322 322 323 324 325 326 342 340 337 341 342
308 307 308 310 311 312 312 313 313 313 313 313 312 313 315 316 322 322 319 319 319 319 320 321 324 323 320 319 319 319 319 320 319 323 319 321 322 321 321 322 325 342 342 342 341
307 308 309 311 312 312 313 313 313 313 313 312 312 313 316 317 321 320 319 319 319 319 320 323 322 319 319 318 320 321 322 320 320 320 319 321 322 321 320 322 325 326 326 328 335
308 309 310 312 312 313 313 313 313 313 313 312 312 313 317 321 319 319 319 319 319 319 322 323 323 321 320 320 322 322 322 321 320 318 320 322 322 321 321 322 322 325 330 332 331
309 310 311 312 312 313 313 313 313 313 313 312 312 313 323 319 321 321 321 321 321 321 322 322 320 320 322 321 321 322 320 321 320 319 322 321 322 323 323 323 324 325 331 332 331
310 311 312 312 313 313 313 313 312 313 313 312 312 315 320 317 321 321 322 322 322 322 321 323 323 319 319 320 323 321 321 319 320 319 321 321 323 324 323 324 325 327 332 331 331
310 311 312 312 312 312 312 312 312 312 313 313 313 314 321 322 321 322 323 323 323 323 322 323 323 320 321 320 324 321 319 318 318 320 320 319 325 324 323 324 325 329 332 331 331
309 310 311 311 311 311 311 311 312 313 314 314 315 320 323 321 321 323 323 323 323 323 324 323 322 320 321 320 317 320 318 322 322 321 320 320 325 325 324 326 326 327 330 331 330
309 310 310 311 310 310 314 317 315 316 315 317 317 320 321 323 323 322 323 323 322 324 323 323 322 321 319 318 320 323 324 324 327 326 322 320 326 325 325 325 326 327 328 329 330
308 309 310 310 310 313 317 322 317 318 320 320 322 323 324 322 322 322 323 323 324 323 323 322 322 322 324 323 322 321 321 321 323 325 323 324 326 325 324 323 325 326 326 327 328
307 308 309 310 312 315 317 322 326 324 324 320 321 323 324 323 323 324 324 324 326 323 323 322 323 323 323 322 324 323 323 324 323 325 324 323 324 325 325 324 324 325 325 326 325
309 309 310 312 317 318 320 325 323 323 323 326 321 322 322 323 323 324 324 324 324 324 324 323 324 325 324 323 324 323 320 320 321 322 320 320 322 323 326 324 324 323 322 322 321
311 310 312 319 320 323 325 324 324 325 327 330 321 323 323 322 324 324 325 324 325 326 324 325 323 324 323 325 323 324 320 320 320 319 319 318 316 317 326 325 324 322 321 321 321
313 314 318 319 320 323 326 325 324 325 338 324 322 324 323 323 324 325 324 326 326 325 324 324 325 324 323 324 324 324 321 320 319 317 318 317 316 316 326 326 324 322 322 321 320
315 315 319 320 321 324 324 323 324 327 334 324 324 325 323 322 325 325 324 325 326 326 326 325 324 324 324 324 323 323 321 320 320 317 319 319 321 324 327 326 325 323 323 322 320
314 313 319 320 323 324 325 324 326 328 328 328 324 324 323 323 325 326 326 327 328 330 328 326 326 323 324 325 322 319 318 318 323 320 323 318 320 328 324 322 321 321 320 319 320
318 313 315 320 322 324 325 327 331 329 328 328 325 323 324 324 325 327 326 326 329 328 326 328 331 326 325 323 322 319 318 317 324 323 318 318 330 326 322 322 321 321 319 318 317
319 320 315 320 324 325 326 333 329 331 330 328 326 325 324 325 326 327 328 329 330 327 327 327 328 325 323 321 319 319 321 320 320 323 321 321 326 324 322 322 320 319 318 316 317
317 323 329 325 326 326 329 332 333 332 330 328 328 326 326 328 328 327 327 331 329 326 325 327 328 327 323 322 319 318 320 315 324 325 324 321 322 324 322 321 320 319 316 316 316
324 332 329 327 325 328 331 330 329 327 329 330 332 333 332 332 331 330 330 330 329 326 324 325 328 329 327 325 321 322 322 317 319 320 322 324 321 323 323 321 320 316 314 312 312
320 331 329 327 327 328 329 330 324 327 326 328 329 330 331 331 331 329 332 329 326 326 326 326 327 329 327 322 320 319 317 318 323 323 323 324 323 323 322 318 317 316 314 312 311
320 324 327 327 331 328 330 334 328 326 326 328 327 328 329 329 327 329 330 327 325 331 330 328 326 327 328 324 323 323 324 320 320 322 323 324 324 323 320 317 316 314 312 310 309
321 329 327 328 326 327 329 333 330 326 327 328 328 328 328 327 327 326 328 326 326 323 320 325 325 326 330 328 324 325 325 321 320 322 325 325 322 320 318 316 315 313 312 310 311
325 329 326 329 327 329 332 331 330 329 326 326 327 328 328 328 328 329 327 325 326 325 321 321 324 325 324 324 322 321 320 318 317 318 321 321 321 318 317 315 314 314 312 312 312
326 323 322 320 325 325 328 330 329 329 329 327 327 326 328 327 327 330 327 329 328 324 323 325 325 326 328 325 322 322 322 321 322 322 320 320 320 317 316 314 314 314 312 312 312
321 321 321 323 322 322 325 325 325 328 329 327 327 326 326 327 324 322 322 323 325 327 327 325 325 328 329 326 324 322 325 324 322 319 319 319 319 317 315 315 315 312 312 312 311
Wind_Speed
3 3 3 2 2 2 3 3 4 6 8 11 13 16 17 15 10 6 5 5 8 11 12 13 14 19 23 9 11 6 3 6 6 10 5 10 8 10 4 14 7 5 10 10 16
3 3 2 2 2 2 3 4 6 8 10 12 15 16 17 14 11 12 14 6 5 7 7 9 10 16 6 7 6 2 3 8 1 8 7 10 16 13 13 14 13 9 7 21 19
2 2 2 2 2 3 4 5 7 9 12 14 16 16 15 12 4 5 8 3 5 5 10 14 20 11 13 8 11 9 5 4 9 10 10 10 15 9 11 8 7 11 10 13 5
1 2 2 1 2 3 5 7 9 11 13 15 17 17 14 5 4 3 4 5 7 9 12 13 8 8 6 9 7 3 3 8 7 7 9 7 9 9 12 5 9 9 11 29 17
3 2 1 1 2 4 6 8 10 12 14 16 18 18 6 4 9 4 1 4 10 15 16 7 9 10 8 6 4 4 1 6 8 9 7 12 9 9 9 8 10 10 22 22 21
2 2 1 2 3 5 7 9 11 13 14 16 18 17 3 7 6 4 3 9 15 18 19 10 6 10 5 6 6 5 6 4 6 6 3 5 7 11 4 6 10 12 20 21 22
2 2 2 2 4 6 8 10 12 13 14 14 15 13 5 12 6 5 10 14 5 9 8 19 18 9 10 10 5 5 4 6 3 8 5 4 3 7 7 8 10 16 19 19 22
2 3 3 4 6 7 9 11 12 13 14 13 13 7 6 5 8 10 11 10 5 6 8 12 13 7 5 6 3 4 4 5 8 7 4 9 2 7 7 9 9 16 17 17 16
3 4 5 6 7 9 10 11 12 14 14 14 9 4 8 3 3 4 7 10 11 5 6 7 7 6 8 3 6 5 7 2 4 9 7 5 7 6 8 9 9 11 13 15 13
4 5 6 6 8 10 12 13 11 15 9 9 11 5 7 5 3 5 6 4 10 5 5 5 3 3 6 5 3 6 2 6 7 6 8 7 6 7 8 10 10 11 12 13 12
5 5 6 7 9 11 11 5 5 4 4 7 6 6 4 8 2 7 4 10 6 5 6 8 2 3 4 5 6 8 8 9 2 8 6 3 9 9 8 9 10 10 10 10 11
4 5 6 7 9 11 10 4 9 9 6 17 18 8 6 3 5 6 7 5 5 6 8 7 5 6 8 8 4 7 7 8 9 8 5 3 1 8 9 5 9 12 11 11 8
4 5 6 8 11 14 12 12 11 12 2 11 14 7 5 5 7 5 6 7 8 6 6 2 4 7 7 7 9 7 9 9 8 9 7 6 4 5 3 9 12 9 9 9 9
3 5 5 8 9 10 11 8 10 8 2 5 6 5 9 6 1 7 9 5 8 4 8 3 6 5 7 9 9 6 9 8 10 9 4 5 5 8 11 8 8 9 8 9 8
3 4 6 7 13 8 5 6 11 3 2 9 7 3 7 4 7 3 1 6 6 9 5 6 5 7 7 5 3 3 6 6 9 7 4 9 1 7 9 8 9 8 9 9 8
6 6 7 8 12 14 13 8 5 3 5 8 7 6 5 8 6 5 3 2 3 5 7 3 4 3 3 7 7 2 5 8 5 2 2 11 7 2 3 2 5 7 7 7 6
8 7 10 10 6 22 10 9 2 3 8 7 9 8 8 8 6 7 6 4 3 1 6 9 3 6 5 5 9 10 7 4 6 3 5 12 7 3 6 11 10 8 7 5 3
10 6 11 13 13 15 10 4 3 8 7 0 4 9 9 9 7 8 4 4 10 7 6 5 5 4 2 4 2 6 2 4 2 3 5 7 4 2 6 7 6 3 5 6 6
12 6 9 11 6 6 3 1 4 4 5 9 3 4 7 3 5 4 5 4 4 5 3 4 2 3 6 5 3 6 4 3 1 4 2 1 4 2 6 4 5 6 5 8 6
14 5 16 14 9 1 2 5 5 14 5 7 5 0 6 3 4 2 3 6 5 5 6 3 4 3 4 3 4 1 1 5 3 0 3 7 4 2 4 6 5 6 7 6 5
5 2 2 18 7 3 3 6 11 6 6 4 6 6 7 5 0 3 8 7 8 6 4 5 3 6 7 2 6 1 2 1 3 4 4 1 5 4 2 2 4 7 7 7 6
10 2 13 9 2 3 4 6 6 7 5 3 3 4 6 8 6 7 6 4 5 5 4 1 2 2 6 8 4 3 2 3 5 5 1 4 5 2 1 8 9 6 7 6 6
4 4 11 13 2 4 7 12 2 3 2 3 2 5 7 6 5 4 8 4 1 4 3 3 2 3 10 5 3 3 3 4 4 4 5 4 6 6 7 6 6 8 8 8 9
3 4 3 2 4 4 7 8 3 5 3 4 4 6 5 1 5 1 5 4 4 4 5 5 1 3 5 7 5 6 7 6 6 4 6 7 9 6 6 8 8 8 8 8 7
3 3 3 4 5 6 5 5 8 3 5 6 2 5 6 4 5 5 5 6 7 6 4 4 2 4 8 11 12 9 10 8 7 7 5 7 3 4 5 7 6 6 7 7 7
3 4 5 5 7 7 5 6 8 11 7 7 6 7 4 5 3 3 4 3 3 2 5 4 2 4 6 11 13 15 13 8 6 7 5 6 3 4 3 7 10 8 9 8 8
9 9 2 5 6 6 4 7 10 8 9 1 4 4 1 3 8 6 7 3 1 6 6 5 4 2 4 7 11 8 6 2 3 6 3 4 2 6 10 9 8 8 8 8 7
Wind_Direction
307 295 275 247 239 273 296 298 306 311 317 324 332 333 335 333 327 296 262 240 238 268 285 288 284 275 255 259 264 277 334 289 297 9 151 52 89 36 115 90 118 127 153 185 180
295 280 243 211 238 282 294 300 307 313 318 328 336 336 339 334 320 272 263 262 289 293 280 256 267 266 260 259 262 233 110 271 143 50 24 59 73 65 60 68 104 112 140 170 189
282 242 204 209 259 289 298 305 310 313 319 332 338 336 340 336 305 234 191 264 300 292 265 269 277 274 237 246 255 252 187 34 27 25 34 90 69 62 69 40 54 145 200 191 36
215 179 185 233 280 298 305 309 311 313 319 334 339 340 334 316 342 178 198 271 290 283 280 285 290 291 270 259 248 17 40 84 72 18 23 79 82 60 72 57 80 54 58 67 68
156 161 192 258 292 305 308 309 311 314 321 336 342 344 351 294 249 151 134 252 278 272 253 231 270 276 275 290 63 349 117 63 87 72 63 91 99 111 72 63 53 56 60 66 72
153 171 214 274 300 308 310 311 311 313 319 333 341 347 311 289 182 152 272 254 249 271 270 286 298 315 329 334 76 349 6 122 119 119 108 102 117 99 88 91 84 69 66 57 55
180 203 244 286 302 309 310 309 307 308 312 324 333 350 286 245 301 239 251 244 303 299 310 325 350 8 327 338 1 360 338 302 179 167 150 113 67 110 126 82 81 81 78 68 59
223 240 265 286 301 306 305 303 301 300 300 309 315 323 255 293 256 281 289 269 217 281 259 317 336 316 297 300 324 262 304 255 242 134 141 103 92 114 96 103 93 89 85 78 69
247 256 271 288 299 299 299 296 291 288 288 295 301 193 273 170 232 273 314 341 334 256 290 306 293 247 300 253 330 301 250 249 106 171 146 126 157 150 105 92 89 89 91 89 81
262 263 275 290 296 301 305 300 288 290 290 285 260 316 256 280 81 315 269 288 285 316 273 243 260 243 323 47 284 327 319 350 124 244 151 195 135 152 142 138 127 111 105 103 100
271 267 276 285 295 307 318 335 322 315 237 222 262 215 131 79 224 256 253 281 230 290 276 276 238 295 34 47 14 346 348 340 319 210 146 171 159 171 148 141 129 117 111 108 108
283 265 270 283 298 300 302 262 272 296 306 232 256 273 29 152 249 208 222 247 208 234 258 309 58 0 359 337 36 19 19 359 335 28 36 76 314 141 163 161 139 124 113 117 119
290 264 268 290 303 287 242 250 299 319 284 293 216 240 168 231 275 94 349 345 298 282 274 14 51 22 11 15 36 32 32 2 340 333 357 2 315 259 141 110 97 96 117 118 125
292 265 277 306 304 303 255 279 12 25 346 259 196 245 165 219 233 62 15 315 322 7 16 35 89 51 332 56 39 5 15 358 332 356 308 45 286 311 146 116 115 129 139 139 151
310 261 273 280 300 302 29 332 339 348 313 141 176 162 156 211 128 68 4 318 358 354 55 270 51 49 11 44 44 250 343 288 280 283 328 292 2 287 116 141 168 168 148 145 126
330 260 266 301 287 284 319 358 312 28 248 196 135 179 211 227 160 137 210 177 284 325 305 236 116 91 64 353 311 294 310 322 282 171 332 267 199 333 25 167 102 47 74 93 103
334 262 260 269 271 332 352 330 13 222 317 146 161 182 217 198 171 151 198 220 217 188 342 329 231 85 84 12 359 21 44 347 351 21 208 341 35 28 65 58 76 73 73 57 6
332 280 257 265 280 323 335 12 248 270 288 262 146 171 192 209 185 167 149 280 18 67 28 16 347 25 110 82 348 288 130 140 276 355 285 320 52 197 106 101 111 98 114 70 74
343 309 264 239 261 305 54 262 235 278 0 343 81 320 203 189 123 135 179 266 50 66 106 10 41 128 81 47 93 309 50 189 71 293 4 195 90 62 158 118 61 40 41 64 64
337 291 257 246 197 210 71 252 285 288 353 353 326 232 279 335 94 133 245 28 102 79 90 331 336 344 149 207 139 207 273 33 353 274 298 325 3 155 43 9 8 10 63 44 26
335 296 115 173 157 60 218 250 295 75 51 352 3 0 345 26 253 34 57 49 27 99 83 28 76 298 344 239 195 166 289 218 142 140 166 257 281 173 132 256 62 49 44 40 19
335 289 174 170 81 218 230 251 298 104 117 290 41 348 3 39 22 13 75 83 11 30 37 73 115 304 270 298 77 87 315 116 116 291 3 150 262 10 303 56 70 41 38 11 6
321 261 201 189 223 261 292 309 120 337 41 10 12 65 56 10 21 354 98 117 6 68 70 334 317 353 330 29 42 227 250 213 185 124 202 162 260 268 46 64 43 52 22 8 10
304 306 303 138 218 268 292 305 218 115 4 57 15 60 7 262 285 214 104 133 112 101 127 80 346 181 208 262 304 285 253 232 189 132 221 220 261 351 13 22 22 23 11 20 20
231 292 348 329 342 336 338 313 315 136 188 153 261 226 219 220 281 218 189 134 123 158 119 113 219 279 286 291 297 298 301 288 275 241 177 244 256 31 35 31 17 9 356 29 1
343 10 339 293 311 324 329 322 309 301 161 211 159 263 309 188 216 332 64 71 130 238 168 175 243 314 298 292 287 288 280 271 310 297 45 28 42 55 41 33 14 356 7 4 337
349 341 353 284 310 322 258 265 270 273 298 193 124 47 239 315 91 99 101 99 58 154 203 164 172 355 270 310 317 323 289 306 95 65 89 55 313 25 15 6 344 8 9 341 8